Flag Weather past 2 weeks in Vaughan, Ontario, Canada

Now
43 °F

Overcast.


Feels Like: 40 °F
Forecast: 38 / 54 °F
Wind: 5 mph from East

Location: Toronto Buttonville

Current Time: Nov 23, 2014 at 8:41:15 PM

Latest Report: Nov 23, 2014 at 8:00 PM


Visibility: 15 mi

Pressure: 29.79 "Hg

Humidity: 93%

Dew point: 41 °F

Location of VaughanLocation

Historic Weather in Vaughan — Graph

°F

Vaughan temperature yesterday

Maximum temperature yesterday: 41 °F (at 11:00 PM)
Minimum temperature yesterday: 21 °F (at 12:00 AM)
Average temperature yesterday: 33 °F

Past Weeks' High & Low Weather Summary

 TemperatureHumidityPressure
High61 °F (Nov 11, 2:00 PM)100% (Nov 11, 2:00 AM)30.45 "Hg (Nov 11, 2:00 AM)
Low16 °F (Nov 18, 6:00 AM)46% (Nov 20, 3:00 PM)29.53 "Hg (Nov 17, 2:00 PM)
Average32 °F73%29.98 "Hg
* Reported Nov 8 7:00 PM — Nov 23 7:00 PM, Vaughan, Weather by CustomWeather, © 2014

Note: Actual official high and low records may vary slightly from our data, if they occured in-between our weather recording intervals... More about our weather records

Advertising

Vaughan weather history for previous 24 hours

 ConditionsComfort  
Time TempWeatherWind HumidityBarometerVisibility
7:00 PM
Nov 23
43 °FOvercast.3 mph100%29.82 "Hg10 mi
6:00 PM45 °FPassing clouds.6 mph93%29.84 "Hg12 mi
5:00 PM46 °FLow clouds.7 mph93%29.85 "Hg10 mi
4:00 PM46 °FLow clouds.5 mph93%29.88 "Hg10 mi
3:00 PM46 °FLow clouds.7 mph93%29.90 "Hg10 mi
2:00 PM46 °FLow clouds.12 mph93%29.93 "Hg10 mi
1:55 PMN/ALow clouds.12 mphN/AN/A10 mi
1:00 PM46 °FLight rain. Mostly cloudy.8 mph93%29.95 "Hg7 mi
12:00 PM46 °FDrizzle. Overcast.7 mph82%29.99 "Hg5 mi
11:00 AM48 °FMostly cloudy.7 mph82%30.00 "Hg12 mi
10:00 AM45 °FPartly sunny.7 mph87%30.01 "Hg12 mi
9:00 AM43 °FMostly cloudy.5 mph93%30.01 "Hg12 mi
8:00 AM41 °FOvercast.5 mph93%30.00 "Hg7 mi
7:00 AM41 °FFog.2 mph100%29.99 "Hg6 mi
6:00 AM41 °FFog.No wind100%29.97 "Hg6 mi
5:00 AM39 °FFog.5 mph100%29.98 "Hg6 mi
4:00 AM43 °FFog.2 mph100%29.96 "Hg6 mi
3:00 AM43 °FFog.3 mph93%29.96 "Hg6 mi
2:00 AM43 °FFog.6 mph100%29.96 "Hg6 mi
1:00 AM43 °FFog.3 mph100%29.95 "Hg6 mi
12:00 AM43 °FLight rain. Fog.7 mph93%29.94 "Hg4 mi
11:00 PM
Nov 22
41 °FLight rain. Fog.6 mph100%29.95 "Hg3 mi
10:00 PM39 °FLight rain. Fog.5 mph100%29.94 "Hg5 mi
9:00 PM39 °FOvercast.7 mph100%29.95 "Hg7 mi
8:00 PM39 °FLow clouds.8 mph93%29.94 "Hg7 mi
Weather by CustomWeather, © 2014

See weather overviewHow to use our weather pages